Probability
3 6 6 4 2 2 4 10 17 21 21 17 10 6 4 4 2 1 0 0 0 0 0 0 0 0 0 0 0 0 0 0 0 0 0 0 0 0 0 0 0 0 0
6 9 10 6 3 3 5 11 18 23 24 21 15 10 8 5 3 1 0 0 0 0 0 0 0 0 0 0 0 0 0 0 0 0 0 0 0 0 0 0 0 0 0
12 14 15 11 7 6 8 13 19 23 25 24 22 18 13 9 5 1 0 0 0 0 0 0 0 0 0 0 0 0 0 0 0 0 0 0 0 0 0 0 0 0 0
17 18 19 18 13 10 12 16 19 22 23 25 27 24 19 13 8 3 1 0 0 0 0 0 0 0 0 0 0 0 0 0 0 0 0 0 0 0 0 0 0 0 0
19 20 24 26 22 16 15 16 17 19 22 26 29 29 24 19 13 6 2 0 0 0 0 0 0 0 0 0 0 0 0 0 0 0 0 0 0 0 0 0 0 0 0
24 24 30 35 31 25 21 18 17 18 21 26 28 29 26 22 17 10 3 0 0 0 0 0 0 0 0 0 0 0 0 0 0 0 0 0 0 0 0 0 0 0 0
28 28 34 41 40 36 31 26 23 21 21 23 23 22 21 21 19 13 5 1 0 0 0 0 0 0 0 0 0 0 0 0 0 0 0 0 0 0 0 0 0 0 0
33 32 37 44 46 44 41 37 31 27 25 22 19 17 16 16 17 14 9 3 0 0 0 0 0 0 0 0 0 0 0 0 0 0 0 0 0 0 0 0 0 0 0
38 41 44 47 47 46 46 44 38 33 29 25 20 16 13 12 12 13 10 5 1 0 0 0 0 0 0 0 0 0 0 0 0 0 0 0 0 0 0 0 0 0 0
40 46 51 52 49 48 50 50 46 41 36 30 24 19 14 10 9 10 9 5 1 0 0 0 0 0 0 0 0 0 0 0 0 0 0 0 0 0 0 0 0 0 0
35 42 50 55 56 57 58 59 59 55 47 39 31 25 19 14 11 11 8 4 1 0 0 0 0 0 0 0 0 0 0 0 0 0 0 0 0 0 0 0 0 0 0
31 35 43 52 60 65 68 71 72 68 60 51 43 37 30 23 18 15 11 5 2 1 1 1 1 0 0 0 0 0 0 0 0 0 0 0 0 0 0 0 0 0 0
31 33 38 45 55 64 70 73 74 73 70 65 59 52 44 34 26 20 14 8 4 3 3 4 4 2 0 0 0 0 0 0 0 0 0 0 0 0 0 0 0 0 1
38 38 39 42 50 58 63 67 68 69 72 72 68 65 58 47 34 24 16 10 7 6 5 6 6 4 1 0 0 0 0 0 0 0 0 0 0 0 0 0 0 1 2
45 45 42 44 49 55 58 61 63 66 69 70 68 67 64 54 41 29 20 13 9 8 7 6 6 5 2 0 0 0 0 0 0 0 0 1 1 0 0 1 1 2 2
45 46 45 45 50 53 55 58 61 63 64 65 64 63 61 53 41 32 26 19 12 9 7 6 5 3 1 1 0 0 0 0 0 0 1 2 3 2 1 2 3 4 3
40 42 43 44 47 49 50 54 58 60 59 58 57 57 55 49 39 32 28 22 17 14 11 7 5 2 1 1 0 0 0 0 0 0 1 3 4 4 3 3 5 5 4
35 37 40 43 44 45 44 46 49 51 51 49 47 47 48 44 36 30 27 23 20 18 14 9 5 2 1 1 0 0 0 0 0 0 1 2 3 3 2 2 3 3 3
30 33 36 39 39 38 36 36 38 41 41 39 37 36 37 36 32 28 26 23 20 18 15 9 4 2 2 1 0 0 0 0 0 0 0 0 1 1 0 1 1 1 2
23 26 29 31 31 29 28 29 32 33 33 32 28 27 28 28 28 27 24 21 18 16 13 8 2 1 2 1 0 0 0 0 0 0 0 0 0 0 0 0 0 1 2
15 17 21 23 22 21 23 25 28 28 29 27 23 21 21 20 21 22 19 15 13 11 9 5 1 0 1 1 0 0 0 0 0 0 0 0 0 0 0 0 0 1 2
8 9 13 16 16 16 18 20 21 21 21 19 17 16 14 14 14 14 12 10 8 8 6 4 1 0 0 0 0 0 0 0 0 0 0 0 0 0 0 0 0 0 1
3 4 6 9 11 12 13 14 15 15 14 12 11 11 9 9 9 9 8 7 6 7 6 3 1 0 0 0 0 0 0 0 0 0 0 0 0 0 0 0 0 0 0
2 1 2 3 6 8 10 11 12 13 11 8 6 6 6 6 7 7 7 6 5 5 3 1 0 0 0 0 0 0 0 0 0 0 0 0 0 0 0 0 0 0 0
2 2 1 1 3 6 7 8 10 10 9 6 3 3 3 4 4 5 5 4 3 2 1 0 0 0 0 0 0 0 0 0 0 0 0 0 0 0 0 0 0 0 0
3 3 2 1 3 4 5 6 6 7 7 5 2 1 1 1 2 2 2 2 1 1 0 0 0 0 0 0 0 0 0 0 0 0 0 0 0 0 0 0 0 0 0
Wind_Speed
7 12 19 19 18 16 15 15 15 17 17 17 17 18 18 18 17 17 17 16 15 14 13 12 11 11 12 13 14 15 16 16 16 16 16 15 15 15 15 15 13 11 15
13 14 19 19 19 18 16 15 15 16 16 17 17 17 17 17 17 16 16 15 14 13 13 12 11 12 12 13 14 15 15 15 15 15 15 14 15 14 14 14 13 9 13
16 14 17 19 19 19 17 16 15 15 16 16 16 16 16 16 15 15 15 14 13 13 13 12 12 12 12 13 13 14 15 14 14 13 12 9 11 13 13 14 13 13 13
16 14 15 20 19 19 18 17 16 16 16 15 15 15 15 15 14 14 14 13 13 12 12 12 12 12 12 13 13 13 14 13 12 12 6 6 8 12 13 13 13 13 12
14 12 15 21 19 19 19 18 17 17 16 15 15 15 14 14 13 13 13 13 13 12 12 12 12 12 12 12 12 12 12 12 12 9 5 5 5 12 13 13 13 12 12
13 12 15 20 19 19 18 18 17 17 16 15 15 14 13 13 12 12 12 12 12 12 12 12 12 12 12 12 11 11 11 11 9 6 5 5 5 11 13 12 12 12 11
11 9 13 19 18 18 18 17 17 16 15 14 14 14 13 12 11 11 11 12 12 12 12 11 11 11 11 11 10 10 9 9 6 5 5 5 6 10 12 12 12 11 11
11 9 11 17 19 18 18 17 16 16 15 14 13 13 12 12 11 11 11 11 11 11 11 11 11 10 10 9 9 8 7 7 6 5 5 5 7 10 12 12 12 11 11
9 9 8 10 13 16 17 17 16 15 14 13 13 12 12 12 12 12 11 11 11 11 10 10 10 10 9 8 7 6 5 5 4 3 4 4 7 11 12 11 11 11 10
7 7 8 7 7 8 10 16 17 16 14 14 14 14 13 13 12 12 10 10 11 10 10 10 9 9 8 7 6 4 4 4 2 3 2 4 9 11 11 11 11 11 10
6 5 6 6 6 6 6 11 13 14 14 13 12 14 12 6 6 7 9 11 11 10 10 9 9 8 7 6 5 4 2 1 1 1 2 5 9 10 11 11 11 11 11
7 6 5 6 6 6 6 6 5 6 7 6 5 7 5 4 4 6 8 12 11 11 10 10 9 7 5 2 2 2 1 1 1 1 2 5 7 9 10 11 11 11 10
5 5 5 5 6 6 4 4 4 3 4 5 6 6 5 4 3 4 3 5 6 8 5 6 5 3 3 2 1 1 1 1 1 2 3 6 6 8 9 9 10 10 9
5 5 5 5 5 5 4 4 4 4 4 4 5 6 5 4 4 4 3 3 3 2 3 3 2 3 3 3 2 2 2 1 1 1 3 6 6 6 7 7 7 8 8
4 4 4 5 5 5 4 3 5 4 5 5 5 6 6 5 5 5 4 3 4 3 3 3 3 4 3 2 2 2 2 1 1 1 1 2 3 4 4 4 5 6 6
2 3 2 4 4 4 4 4 4 4 4 4 5 6 7 6 5 5 5 4 4 4 4 4 4 4 3 2 1 1 1 0 1 1 1 1 2 3 3 2 2 3 3
1 1 2 4 4 4 4 4 3 3 3 4 4 5 7 6 6 5 5 5 5 5 5 4 4 3 2 2 2 1 2 2 3 3 3 3 4 6 5 5 5 5 4
1 1 1 2 2 3 3 3 2 3 3 3 4 4 6 6 6 5 5 5 5 5 5 4 3 3 3 3 2 2 3 3 4 4 4 5 4 4 6 8 8 7 6
2 1 1 0 1 2 2 2 2 2 3 3 3 4 5 6 7 5 5 5 5 5 4 5 3 3 4 4 4 3 4 4 4 5 6 6 6 6 5 8 12 12 11
5 4 3 2 1 2 2 2 2 2 2 2 3 3 5 5 6 6 5 5 5 4 4 5 5 4 4 5 5 5 5 5 4 5 6 6 6 7 7 7 6 9 14
6 6 5 4 3 1 1 2 2 2 2 2 1 1 2 3 4 5 5 5 5 5 6 7 5 6 5 5 5 4 4 6 6 4 5 5 6 7 7 7 6 5 6
8 7 6 5 3 2 1 1 1 2 1 1 1 1 1 0 2 4 5 4 5 5 6 7 7 5 4 5 4 4 3 2 4 5 4 5 6 6 7 8 7 7 6
9 9 7 6 5 3 2 1 1 2 2 1 1 1 2 2 1 1 2 2 3 4 5 7 8 8 6 5 4 4 5 5 3 3 5 5 5 5 5 6 7 7 7
8 7 7 7 6 5 3 1 2 2 2 1 1 2 3 3 2 2 0 1 2 3 4 6 7 5 7 6 4 2 2 5 5 4 3 4 5 5 5 5 6 6 6
8 8 7 7 7 7 5 2 2 2 2 2 3 3 3 3 3 3 2 1 1 1 2 3 4 5 5 5 4 4 3 3 3 5 5 4 3 4 4 4 4 4 5
8 7 7 7 8 8 7 5 4 4 4 4 4 3 2 2 2 3 3 3 2 2 2 2 3 4 4 4 4 4 4 4 4 4 5 5 4 3 3 3 3 3 3
Wind_Direction
150 151 152 149 144 139 132 124 119 119 122 126 131 134 136 138 139 140 141 140 140 138 135 131 128 125 124 123 122 122 123 124 126 127 129 128 125 122 119 116 113 111 113
145 149 151 149 146 141 136 129 123 120 121 124 128 132 134 137 138 140 141 141 141 141 138 135 132 129 127 127 126 127 128 130 131 133 134 131 128 125 123 122 122 121 119
141 147 150 149 146 143 139 133 128 124 123 125 127 130 133 135 137 139 140 141 141 141 139 137 134 131 129 130 131 132 133 134 135 133 127 124 129 130 130 129 128 125 123
141 145 148 150 148 145 141 138 134 131 129 128 129 132 134 136 137 139 140 141 139 138 138 137 135 133 132 134 135 136 137 136 133 126 116 124 136 138 137 135 133 132 130
140 143 152 151 149 147 144 142 139 137 135 134 134 135 136 137 137 139 141 141 139 138 138 138 137 137 137 138 138 138 139 137 135 126 122 121 127 145 143 142 141 139 138
139 143 152 152 150 148 147 146 144 142 142 141 140 140 140 140 140 142 143 143 142 141 140 140 140 141 141 141 141 142 144 144 131 133 136 139 142 153 151 151 149 146 146
137 141 151 152 151 150 149 149 148 148 147 147 147 147 146 145 145 146 147 147 146 145 145 144 144 144 144 144 145 147 151 149 135 148 152 159 165 164 161 159 157 155 155
133 135 147 154 154 153 153 154 154 154 153 153 153 153 153 152 151 152 152 153 152 152 151 150 149 148 147 147 147 149 151 150 144 159 168 173 182 177 172 169 167 166 165
121 132 142 153 157 158 159 159 159 159 159 159 159 160 161 161 160 161 160 160 159 159 158 157 156 154 153 151 147 146 146 141 139 159 176 178 193 188 181 177 176 175 175
119 135 144 148 151 157 164 166 165 165 166 167 168 169 170 171 170 170 167 167 167 167 167 165 164 160 159 157 153 153 146 121 141 166 177 195 198 197 190 185 184 184 184
129 137 145 146 147 149 156 171 169 169 172 174 176 177 175 172 171 174 176 177 177 177 177 174 171 167 167 168 169 171 142 120 158 187 196 208 204 205 199 193 191 192 193
153 157 153 155 151 153 166 163 161 167 170 174 175 178 170 161 174 179 186 188 187 187 187 185 182 179 169 157 184 174 126 160 189 212 222 224 215 212 208 199 198 199 201
158 162 161 160 158 162 167 161 163 164 166 176 178 176 164 159 173 180 177 194 194 192 187 190 186 172 164 169 178 173 187 198 202 227 234 235 225 221 217 206 203 204 206
148 166 166 164 165 170 170 170 169 168 173 183 183 176 170 174 184 183 182 185 185 181 177 180 177 178 186 194 202 217 220 219 219 225 238 236 225 222 222 210 204 205 208
157 168 179 174 170 174 174 184 183 179 181 183 182 183 180 186 192 189 190 189 190 183 185 188 189 193 199 209 223 226 234 236 222 206 239 233 210 205 208 207 203 205 204
178 175 173 175 176 174 182 183 185 185 181 183 186 188 186 189 193 193 194 195 198 192 193 194 194 197 201 195 210 195 162 101 91 101 102 62 100 127 127 133 160 171 169
189 162 181 180 175 179 185 188 182 181 176 183 191 191 188 189 192 196 198 202 205 196 192 189 192 187 186 163 134 107 85 71 71 72 73 72 72 77 84 88 87 90 96
34 122 216 190 172 182 179 175 162 169 181 193 193 195 196 192 191 196 203 210 202 193 190 187 185 181 166 141 116 87 76 71 67 71 72 68 68 65 68 79 82 78 78
18 55 41 22 157 165 170 158 164 176 192 190 189 191 197 196 195 200 207 207 192 193 190 188 180 176 155 135 115 84 68 65 61 71 73 67 65 65 60 63 68 70 71
23 30 28 25 72 136 147 149 169 177 202 192 197 191 193 200 197 199 206 205 189 188 187 176 171 159 144 131 109 83 66 64 61 65 72 71 68 68 65 62 57 59 64
25 26 23 20 11 56 144 175 185 196 194 194 194 171 201 202 204 204 208 203 193 194 190 174 162 152 146 136 120 103 72 62 63 61 69 74 72 70 69 65 61 56 54
17 13 15 14 2 353 228 201 187 168 145 145 100 96 89 161 228 223 205 201 195 193 186 175 162 156 162 165 144 133 133 103 64 56 65 76 76 73 72 70 69 66 60
15 8 2 357 356 353 338 126 131 118 99 90 72 58 43 30 8 301 234 208 203 197 193 181 175 170 173 182 171 157 159 164 128 73 62 69 76 75 73 71 71 67 65
4 2 5 5 4 4 2 82 149 155 147 121 103 85 57 38 25 19 37 203 199 195 190 183 178 177 169 178 174 174 137 138 145 135 92 72 76 74 70 72 70 64 60
2 3 4 8 14 13 17 32 97 101 111 104 93 80 66 47 38 36 58 83 149 164 170 173 171 174 176 176 166 152 123 111 115 137 142 133 90 65 66 67 67 64 57
8 8 11 16 21 20 27 38 63 86 99 102 88 79 72 61 52 45 58 69 76 84 110 139 150 160 166 163 157 151 151 152 153 138 136 139 122 88 64 57 58 59 53